This is the latest recevied weather packets stored in our database for station/object KD0SBN. If no packets are shown the sender has not sent any weather packets the latest 10 day(s).
| Time | Temp. | Humidity | Pressure | Rain* | Wind** | Luminosity | Snow |
|---|---|---|---|---|---|---|---|
| 1777959777 | 13.89° C | 57% | 1010.6 hPa | 0 mm | - | - | - |
| 1777959475 | 13.89° C | 59% | 1010.4 hPa | 0 mm | - | - | - |
| 1777959172 | 13.89° C | 59% | 1010.4 hPa | 0 mm | - | - | - |
| 1777958869 | 13.33° C | 59% | 1010.5 hPa | 0 mm | - | - | - |
| 1777958566 | 13.89° C | 59% | 1010.4 hPa | 0 mm | - | - | - |
| 1777958263 | 13.89° C | 59% | 1010.4 hPa | 0 mm | - | - | - |
| 1777957961 | 13.89° C | 59% | 1010.2 hPa | 0 mm | - | - | - |
| 1777957658 | 13.89° C | 59% | 1010.5 hPa | 0 mm | - | - | - |
| 1777957357 | 13.89° C | 58% | 1010.5 hPa | 0 mm | - | - | - |
| 1777957052 | 13.89° C | 59% | 1010.4 hPa | 0 mm | - | - | - |
| 1777956750 | 13.89° C | 59% | 1010.4 hPa | 0 mm | - | - | - |
| 1777956446 | 14.44° C | 58% | 1010.5 hPa | 0 mm | - | - | - |
| 1777956143 | 14.44° C | 58% | 1010.5 hPa | 0 mm | - | - | - |
| 1777955839 | 13.89° C | 59% | 1010.4 hPa | 0 mm | - | - | - |
| 1777955536 | 13.89° C | 60% | 1010.6 hPa | 0 mm | - | - | - |
| 1777955232 | 14.44° C | 58% | 1010.2 hPa | 0 mm | - | - | - |
| 1777954930 | 13.89° C | 60% | 1010.2 hPa | 0 mm | - | - | - |
| 1777954626 | 14.44° C | 59% | 1010.2 hPa | 0 mm | - | - | - |
| 1777954324 | 13.89° C | 58% | 1010.2 hPa | 0 mm | - | - | - |
| 1777954020 | 14.44° C | 59% | 1010.2 hPa | 0 mm | - | - | - |
| 1777953718 | 14.44° C | 59% | 1010.1 hPa | 0 mm | - | - | - |
| 1777953414 | 15° C | 53% | 1010.2 hPa | 0 mm | - | - | - |
| 1777953110 | 15° C | 51% | 1009.9 hPa | 0 mm | - | - | - |
| 1777952807 | 15° C | 50% | 1009.5 hPa | 0 mm | - | - | - |
| 1777952504 | 15.56° C | 50% | 1009.5 hPa | 0 mm | - | - | - |
* Rain latest hour (hover to see other rain measurements)
** Current wind speed in m/s (hover to see current wind gust speed)